User: anonymous   Login
Location: Igon
(43.1667°N, 0.2333°W)
Time: 02:22:27
(UTC+00:00)
Language:

GPS 2-04 Rocket1 - Orbit

View from above orbital plane
View from above orbital plane
View from above satellite
View from above satellite

Ground track
Ground track

The orbit data is extracted from the following two-line orbital elements,

1 20303U 89085B   21060.72346317  .00002436  00000-0  76855-4 0  9990
2 20303  35.6440 192.9850 0092683 305.2536  53.9547 15.28681699707437
Epoch (UTC): 01 March 2021 17:21:47
Eccentricity: 0.0092683
inclination: 35.6440°
perigee height: 416 km
apogee height: 543 km
right ascension of ascending node: 192.9850°
argument of perigee: 305.2536°
revolutions per day: 15.28681699
mean anomaly at epoch: 53.9547°
orbit number at epoch: 70743

The dashed part of the orbit path shows where the satellite is in the earth's shadow,  

DLR